Warsaw, IN

3:49 AM EDT on August 20, 2017 (GMT -0400)
Warsaw Municipal

Weather History for KASW - February, 2014

Change the Weather History Date:

Sunday, February 23, 2014

  Actual Average Record
Temperature  
Mean Temperature 26 °F -  
Max Temperature 32 °F 40 °F 65 °F (1984)
Min Temperature 19 °F 23 °F -4 °F (1963)
Degree Days  
Heating Degree Days 40    
Moisture  
Dew Point 16 °F    
Average Humidity 67    
Maximum Humidity 80    
Minimum Humidity 51    
Precipitation  
Precipitation 0.00 in - - ()
Sea Level Pressure  
Sea Level Pressure 30.12 in    
Wind  
Wind Speed 8 mph (WNW)    
Max Wind Speed 16 mph    
Max Gust Speed 21 mph    
Visibility 10 miles    
Events      
Averages and records for this station are not official NWS values.
T = Trace of Precipitation, MM = Missing Value Source: NWS Daily Summary

Daily Weather History Graph

Daily Weather History Graph

Search for Another Location

Airport or City:

Trip Planner

Search our weather history database for the weather conditions in past years. The results will help you decide how hot, cold, wet, or windy it might be!

Date:

Astronomy

Feb. 23, 2014 Rise Set
Actual Time 7:26 AM EST 6:27 PM EST
Civil Twilight 6:58 AM EST 6:55 PM EST
Nautical Twilight 6:26 AM EST 7:27 PM EST
Astronomical Twilight 5:54 AM EST 7:59 PM EST
Moon 2:26 AM EST (2/23) 12:27 PM EST (2/23)
Length of Visible Light 11h 56m
Length of Day
11h 00m
Last Quarter, 39% of the Moon is Illuminated
Feb 23
Last Quarter
Mar 1
New
Mar 8
First Quarter
Mar 16
Full
Mar 23
Last Quarter

Hourly Weather History & Observations

Time (EST) Temp. Windchill Dew Point Humidity Pressure Visibility Wind Dir Wind Speed Gust Speed Precip Events Conditions
12:15 AM 32.0 °F 26.4 °F 26.6 °F 80% 30.02 in 10.0 mi West 5.8 mph - N/A   Overcast
12:35 AM 32.0 °F 26.4 °F 23.0 °F 69% 30.03 in 10.0 mi West 5.8 mph - N/A   Overcast
12:55 AM 32.0 °F 27.5 °F 23.0 °F 69% 30.03 in 10.0 mi West 4.6 mph - N/A   Scattered Clouds
1:15 AM 30.2 °F 25.4 °F 23.0 °F 75% 30.03 in 10.0 mi West 4.6 mph - N/A   Scattered Clouds
1:35 AM 30.2 °F 24.3 °F 23.0 °F 75% 30.04 in 10.0 mi West 5.8 mph - N/A   Overcast
1:55 AM 30.2 °F 24.3 °F 23.0 °F 75% 30.04 in 10.0 mi West 5.8 mph - N/A   Overcast
2:15 AM 28.4 °F 23.3 °F 21.2 °F 74% 30.03 in 10.0 mi West 4.6 mph - N/A   Mostly Cloudy
2:35 AM 28.4 °F 22.2 °F 21.2 °F 74% 30.04 in 10.0 mi West 5.8 mph - N/A   Scattered Clouds
2:55 AM 28.4 °F 23.3 °F 21.2 °F 74% 30.04 in 10.0 mi West 4.6 mph - N/A   Clear
3:15 AM 26.6 °F 20.0 °F 19.4 °F 74% 30.04 in 10.0 mi WNW 5.8 mph - N/A   Clear
3:35 AM 26.6 °F 19.1 °F 19.4 °F 74% 30.05 in 10.0 mi NW 6.9 mph - N/A   Clear
3:55 AM 26.6 °F 20.0 °F 17.6 °F 69% 30.05 in 10.0 mi NW 5.8 mph - N/A   Clear
4:15 AM 26.6 °F 19.1 °F 17.6 °F 69% 30.05 in 10.0 mi NW 6.9 mph - N/A   Clear
4:35 AM 24.8 °F 16.9 °F 17.6 °F 74% 30.06 in 10.0 mi NW 6.9 mph - N/A   Clear
4:55 AM 24.8 °F 19.1 °F 17.6 °F 74% 30.06 in 10.0 mi WNW 4.6 mph - N/A   Clear
5:15 AM 23.0 °F 18.4 °F 17.6 °F 80% 30.07 in 10.0 mi NW 3.5 mph - N/A   Clear
5:35 AM 21.2 °F 13.6 °F 15.8 °F 80% 30.08 in 10.0 mi WNW 5.8 mph - N/A   Clear
5:55 AM 23.0 °F 13.9 °F 17.6 °F 80% 30.09 in 10.0 mi WNW 8.1 mph - N/A   Clear
6:15 AM 24.8 °F 16.1 °F 17.6 °F 74% 30.10 in 10.0 mi WNW 8.1 mph - N/A   Mostly Cloudy
6:35 AM 24.8 °F 15.3 °F 17.6 °F 74% 30.11 in 10.0 mi WNW 9.2 mph - N/A   Mostly Cloudy
6:55 AM 24.8 °F 15.3 °F 17.6 °F 74% 30.09 in 10.0 mi NW 9.2 mph - N/A   Overcast
7:15 AM 24.8 °F 16.1 °F 17.6 °F 74% 30.10 in 10.0 mi WNW 8.1 mph - N/A   Mostly Cloudy
7:35 AM 24.8 °F 15.3 °F 17.6 °F 74% 30.10 in 10.0 mi WNW 9.2 mph - N/A   Overcast
7:55 AM 24.8 °F 15.3 °F 17.6 °F 74% 30.11 in 10.0 mi NW 9.2 mph - N/A   Scattered Clouds
8:20 AM 24.8 °F 16.1 °F 17.6 °F 74% 30.13 in 10.0 mi WNW 8.1 mph - N/A   Mostly Cloudy
8:35 AM 24.8 °F 15.3 °F 17.6 °F 74% 30.13 in 10.0 mi WNW 9.2 mph - N/A   Mostly Cloudy
8:55 AM 24.8 °F 14.6 °F 17.6 °F 74% 30.15 in 10.0 mi WNW 10.4 mph - N/A   Scattered Clouds
9:15 AM 24.8 °F 14.6 °F 17.6 °F 74% 30.15 in 10.0 mi WNW 10.4 mph - N/A   Clear
9:35 AM 24.8 °F 14.6 °F 17.6 °F 74% 30.15 in 10.0 mi NW 10.4 mph - N/A   Clear
9:55 AM 26.6 °F 15.7 °F 17.6 °F 69% 30.14 in 10.0 mi WNW 12.7 mph - N/A   Clear
10:15 AM 26.6 °F 16.8 °F 17.6 °F 69% 30.14 in 10.0 mi NW 10.4 mph - N/A   Clear
10:35 AM 26.6 °F 16.2 °F 17.6 °F 69% 30.15 in 10.0 mi West 11.5 mph - N/A   Clear
10:55 AM 26.6 °F 15.7 °F 17.6 °F 69% 30.15 in 10.0 mi WNW 12.7 mph - N/A   Clear
11:15 AM 28.4 °F 17.5 °F 17.6 °F 64% 30.15 in 10.0 mi NW 13.8 mph - N/A   Clear
11:35 AM 26.6 °F 15.7 °F 15.8 °F 64% 30.15 in 10.0 mi WNW 12.7 mph - N/A   Clear
11:55 AM 26.6 °F 15.7 °F 15.8 °F 64% 30.15 in 10.0 mi WNW 12.7 mph - N/A   Clear
12:15 PM 26.6 °F 15.2 °F 15.8 °F 64% 30.16 in 10.0 mi West 13.8 mph - N/A   Clear
12:35 PM 26.6 °F 16.8 °F 14.0 °F 59% 30.16 in 10.0 mi WNW 10.4 mph - N/A   Clear
12:55 PM 28.4 °F 19.1 °F 15.8 °F 59% 30.15 in 10.0 mi WNW 10.4 mph - N/A   Clear
1:15 PM 26.6 °F 15.2 °F 14.0 °F 59% 30.15 in 10.0 mi WNW 13.8 mph - N/A   Clear
1:35 PM 28.4 °F 19.1 °F 15.8 °F 59% 30.14 in 10.0 mi NW 10.4 mph - N/A   Clear
1:55 PM 28.4 °F 17.5 °F 15.8 °F 59% 30.14 in 10.0 mi WNW 13.8 mph - N/A   Clear
2:15 PM 28.4 °F 17.0 °F 14.0 °F 55% 30.14 in 10.0 mi WNW 15.0 mph 18.4 mph N/A   Clear
2:35 PM 28.4 °F 17.5 °F 14.0 °F 55% 30.14 in 10.0 mi NW 13.8 mph 19.6 mph N/A   Clear
2:55 PM 28.4 °F 17.5 °F 14.0 °F 55% 30.14 in 10.0 mi NW 13.8 mph - N/A   Clear
3:15 PM 28.4 °F 16.6 °F 14.0 °F 55% 30.14 in 10.0 mi WNW 16.1 mph - N/A   Clear
3:35 PM 28.4 °F 18.0 °F 14.0 °F 55% 30.13 in 10.0 mi NW 12.7 mph - N/A   Clear
3:55 PM 28.4 °F 18.5 °F 14.0 °F 55% 30.14 in 10.0 mi NW 11.5 mph 18.4 mph N/A   Clear
4:15 PM 28.4 °F 18.0 °F 12.2 °F 51% 30.13 in 10.0 mi NW 12.7 mph - N/A   Clear
4:35 PM 26.6 °F 14.7 °F 12.2 °F 55% 30.14 in 10.0 mi NW 15.0 mph - N/A   Clear
4:55 PM 28.4 °F 18.0 °F 14.0 °F 55% 30.14 in 10.0 mi WNW 12.7 mph - N/A   Clear
5:15 PM 26.6 °F 16.8 °F 12.2 °F 55% 30.14 in 10.0 mi WNW 10.4 mph - N/A   Clear
5:35 PM 26.6 °F 16.2 °F 12.2 °F 55% 30.15 in 10.0 mi WNW 11.5 mph - N/A   Clear
5:55 PM 26.6 °F 16.2 °F 14.0 °F 59% 30.14 in 10.0 mi West 11.5 mph - N/A   Clear
6:15 PM 24.8 °F 15.3 °F 12.2 °F 59% 30.14 in 10.0 mi West 9.2 mph - N/A   Clear
6:35 PM 24.8 °F 16.9 °F 12.2 °F 59% 30.14 in 10.0 mi WNW 6.9 mph - N/A   Clear
6:55 PM 21.2 °F 14.9 °F 12.2 °F 68% 30.15 in 10.0 mi WSW 4.6 mph - N/A   Clear
7:15 PM 23.0 °F 17.0 °F 12.2 °F 63% 30.15 in 10.0 mi WSW 4.6 mph - N/A   Clear
7:35 PM 23.0 °F 13.9 °F 12.2 °F 63% 30.15 in 10.0 mi West 8.1 mph - N/A   Clear
7:55 PM 23.0 °F 13.1 °F 14.0 °F 68% 30.15 in 10.0 mi WSW 9.2 mph - N/A   Clear
8:15 PM 23.0 °F 12.4 °F 14.0 °F 68% 30.14 in 10.0 mi West 10.4 mph - N/A   Clear
8:35 PM 23.0 °F 13.1 °F 14.0 °F 68% 30.15 in 10.0 mi West 9.2 mph - N/A   Clear
8:55 PM 23.0 °F 12.4 °F 14.0 °F 68% 30.15 in 10.0 mi West 10.4 mph - N/A   Clear
9:15 PM 23.0 °F 11.1 °F 14.0 °F 68% 30.15 in 10.0 mi West 12.7 mph - N/A   Clear
9:35 PM 21.2 °F 7.3 °F 12.2 °F 68% 30.16 in 10.0 mi West 16.1 mph 20.7 mph N/A   Clear
9:55 PM 21.2 °F 8.3 °F 12.2 °F 68% 30.16 in 10.0 mi West 13.8 mph 18.4 mph N/A   Clear
10:15 PM 21.2 °F 7.8 °F 12.2 °F 68% 30.16 in 10.0 mi West 15.0 mph - N/A   Clear
10:35 PM 21.2 °F 8.9 °F 12.2 °F 68% 30.16 in 10.0 mi West 12.7 mph 19.6 mph N/A   Clear
10:55 PM 21.2 °F 8.3 °F 12.2 °F 68% 30.15 in 10.0 mi West 13.8 mph 18.4 mph N/A   Clear
11:15 PM 19.4 °F 6.6 °F 12.2 °F 74% 30.16 in 10.0 mi West 12.7 mph - N/A   Clear
11:35 PM 19.4 °F 6.6 °F 12.2 °F 74% 30.15 in 10.0 mi West 12.7 mph - N/A   Clear
11:55 PM 19.4 °F 6.6 °F 12.2 °F 74% 30.15 in 10.0 mi West 12.7 mph 18.4 mph N/A   Clear